Weather History for KBCK - September, 2013

Change the Weather History Date:

Monday, September 30, 2013

  Actual Average (KLSE) Record (KLSE)
Temperature  
Mean Temperature 58 °F 56 °F  
Max Temperature 74 °F 67 °F 87 °F (1996)
Min Temperature 41 °F 46 °F 24 °F (1899)
Degree Days  
Heating Degree Days 8 9  
Month to date heating degree days 139  
Since 1 July heating degree days 160  
Cooling Degree Days 0 1  
Month to date cooling degree days 74  
Year to date cooling degree days 774  
Growing Degree Days 8 (Base 50)    
Moisture  
Dew Point 44 °F    
Average Humidity 65    
Maximum Humidity 100    
Minimum Humidity 31    
Precipitation  
Precipitation 0.00 in 0.09 in 1.43 in (1925)
Month to date precipitation 3.56  
Year to date precipitation 27.52  
Snow  
Snow 0.00 in 0.00 in 0.00 in (2002)
Month to date snowfall 0.0  
Since 1 July snowfall 0.0  
Snow Depth -    
Sea Level Pressure  
Sea Level Pressure 29.82 in    
Wind  
Wind Speed 5 mph (South)    
Max Wind Speed 16 mph    
Max Gust Speed 28 mph    
Visibility 10 miles    
Events      
T = Trace of Precipitation, MM = Missing Value Source: NWS Daily Summary

Daily Weather History Graph

Daily Weather History Graph

Search for Another Location

Airport or City:

Trip Planner

Search our weather history database for the weather conditions in past years. The results will help you decide how hot, cold, wet, or windy it might be!

Date:

Astronomy

Sep. 30, 2013 Rise Set
Actual Time 7:00 AM CDT 6:45 PM CDT
Civil Twilight 6:31 AM CDT 7:14 PM CDT
Nautical Twilight 5:57 AM CDT 7:47 PM CDT
Astronomical Twilight 5:23 AM CDT 8:21 PM CDT
Moon 2:29 AM CDT (9/30) 4:23 PM CDT (9/30)
Length of Visible Light 12h 42m
Length of Day
11h 45m
Waning Crescent, 19% of the Moon is Illuminated
Sep 30
Waning Crescent
Oct 4
New
Oct 11
First Quarter
Oct 18
Full
Oct 26
Last Quarter

Hourly Weather History & Observations

Time (CDT) Temp. Windchill Dew Point Humidity Pressure Visibility Wind Dir Wind Speed Gust Speed Precip Events Conditions
12:15 AM 49.5 °F - 44.2 °F 82% 29.93 in 10.0 mi South 3.5 mph - N/A   Clear
12:35 AM 44.6 °F - 44.4 °F 99% 29.93 in 10.0 mi Calm Calm - N/A   Clear
12:55 AM 44.1 °F - 44.1 °F 100% 29.93 in 10.0 mi Calm Calm - N/A   Clear
1:15 AM 44.2 °F - 44.1 °F 99% 29.92 in 10.0 mi Calm Calm - N/A   Clear
1:35 AM 43.0 °F - 43.0 °F 100% 29.92 in 10.0 mi Calm Calm - N/A   Clear
1:55 AM 41.9 °F 40.0 °F 41.9 °F 100% 29.92 in 10.0 mi South 3.5 mph - N/A   Clear
2:15 AM 41.9 °F - 41.9 °F 100% 29.91 in 10.0 mi Calm Calm - N/A   Clear
2:35 AM 41.5 °F - 41.5 °F 100% 29.91 in 10.0 mi Calm Calm - N/A   Clear
2:55 AM 41.5 °F - 41.5 °F 100% 29.91 in 10.0 mi Calm Calm - N/A   Clear
3:15 AM 43.5 °F 40.9 °F 43.5 °F 100% 29.90 in 10.0 mi SSE 4.6 mph - N/A   Clear
3:35 AM 41.9 °F - 41.9 °F 100% 29.91 in 10.0 mi Calm Calm - N/A   Clear
3:55 AM 41.0 °F - 41.0 °F 100% 29.90 in 10.0 mi Calm Calm - N/A   Clear
4:15 AM 42.4 °F 39.6 °F 42.4 °F 100% 29.91 in 10.0 mi South 4.6 mph - N/A   Clear
4:35 AM 41.9 °F 39.0 °F 41.9 °F 100% 29.90 in 10.0 mi SSE 4.6 mph - N/A   Clear
4:55 AM 48.2 °F - 46.0 °F 92% 29.89 in 10.0 mi SSE 3.5 mph - N/A   Clear
5:15 AM 48.0 °F - 46.2 °F 93% 29.89 in 10.0 mi South 3.5 mph - N/A   Clear
5:35 AM 48.7 °F - 46.0 °F 90% 29.88 in 10.0 mi SSE 3.5 mph - N/A   Clear
5:55 AM 48.7 °F - 45.7 °F 89% 29.88 in 10.0 mi SSE 3.5 mph - N/A   Clear
6:15 AM 49.3 °F - 46.0 °F 89% 29.88 in 10.0 mi South 3.5 mph - N/A   Clear
6:35 AM 49.5 °F - 46.4 °F 89% 29.88 in 10.0 mi South 3.5 mph - N/A   Clear
6:55 AM 48.7 °F - 45.9 °F 90% 29.88 in 10.0 mi Calm Calm - N/A   Clear
7:15 AM 48.6 °F - 45.7 °F 90% 29.88 in 10.0 mi Calm Calm - N/A   Clear
7:35 AM 48.2 °F - 45.1 °F 89% 29.87 in 10.0 mi South 3.5 mph - N/A   Clear
7:55 AM 49.6 °F - 43.5 °F 79% 29.86 in 10.0 mi South 4.6 mph - N/A   Clear
8:15 AM 52.2 °F - 44.8 °F 76% 29.86 in 10.0 mi SSE 4.6 mph - N/A   Clear
8:35 AM 55.4 °F - 46.2 °F 71% 29.86 in 10.0 mi Calm Calm - N/A   Clear
8:55 AM 58.3 °F - 45.7 °F 63% 29.86 in 10.0 mi South 9.2 mph - N/A   Clear
9:15 AM 60.3 °F - 46.2 °F 60% 29.86 in 10.0 mi South 8.1 mph - N/A   Clear
9:35 AM 61.7 °F - 46.6 °F 58% 29.86 in 10.0 mi South 10.4 mph - N/A   Clear
9:55 AM 62.8 °F - 47.3 °F 57% 29.86 in 10.0 mi SSW 10.4 mph - N/A   Clear
10:15 AM 63.3 °F - 47.7 °F 57% 29.86 in 10.0 mi South 10.4 mph 16.1 mph N/A   Clear
10:35 AM 64.9 °F - 48.0 °F 54% 29.85 in 10.0 mi South 10.4 mph 18.4 mph N/A   Clear
10:55 AM 65.8 °F - 47.1 °F 51% 29.84 in 10.0 mi South 13.8 mph 26.5 mph N/A   Clear
11:15 AM 67.6 °F - 46.9 °F 47% 29.84 in 10.0 mi South 12.7 mph 21.9 mph N/A   Clear
11:35 AM 68.0 °F - 46.8 °F 47% 29.83 in 10.0 mi SSW 10.4 mph 25.3 mph N/A   Clear
11:55 AM 69.3 °F - 45.1 °F 42% 29.83 in 10.0 mi SW 15.0 mph 21.9 mph N/A   Clear
12:15 PM 69.3 °F - 44.6 °F 41% 29.83 in 10.0 mi South 10.4 mph 21.9 mph N/A   Clear
12:35 PM 70.9 °F - 42.8 °F 36% 29.82 in 10.0 mi SSW 13.8 mph 24.2 mph N/A   Clear
12:55 PM 71.1 °F - 41.5 °F 34% 29.81 in 10.0 mi South 15.0 mph 24.2 mph N/A   Clear
1:15 PM 73.0 °F - 41.5 °F 32% 29.81 in 10.0 mi SSW 11.5 mph 27.6 mph N/A   Clear
1:35 PM 72.5 °F - 40.8 °F 32% 29.80 in 10.0 mi South 13.8 mph 23.0 mph N/A   Clear
1:55 PM 73.4 °F - 42.1 °F 32% 29.79 in 10.0 mi South 10.4 mph 18.4 mph N/A   Clear
2:15 PM 72.3 °F - 41.4 °F 33% 29.78 in 10.0 mi SSW 10.4 mph 20.7 mph N/A   Clear
2:35 PM 73.4 °F - 41.7 °F 32% 29.77 in 10.0 mi South 15.0 mph 20.7 mph N/A   Clear
2:55 PM 73.2 °F - 41.7 °F 32% 29.76 in 10.0 mi South 10.4 mph 20.7 mph N/A   Clear
3:15 PM 73.6 °F - 40.8 °F 31% 29.76 in 10.0 mi South 12.7 mph 26.5 mph N/A   Clear
3:35 PM 73.8 °F - 41.7 °F 32% 29.76 in 10.0 mi SSW 9.2 mph 19.6 mph N/A   Clear
3:55 PM 73.8 °F - 41.9 °F 32% 29.76 in 10.0 mi South 11.5 mph 17.3 mph N/A   Clear
4:15 PM 74.3 °F - 42.4 °F 32% 29.75 in 10.0 mi South 16.1 mph 23.0 mph N/A   Clear
4:35 PM 73.6 °F - 42.1 °F 32% 29.75 in 10.0 mi SSW 13.8 mph 19.6 mph N/A   Clear
4:55 PM 73.4 °F - 42.3 °F 33% 29.74 in 10.0 mi South 10.4 mph 20.7 mph N/A   Clear
5:15 PM 73.0 °F - 41.9 °F 33% 29.73 in 10.0 mi SSW 12.7 mph 17.3 mph N/A   Clear
5:35 PM 72.5 °F - 42.1 °F 33% 29.74 in 10.0 mi SSW 10.4 mph 17.3 mph N/A   Clear
5:55 PM 71.6 °F - 42.3 °F 35% 29.73 in 10.0 mi SSW 10.4 mph 16.1 mph N/A   Clear
6:15 PM 70.5 °F - 43.0 °F 37% 29.73 in 10.0 mi South 8.1 mph - N/A   Clear
6:35 PM 69.1 °F - 43.3 °F 39% 29.73 in 10.0 mi South 6.9 mph - N/A   Clear
6:55 PM 67.3 °F - 43.9 °F 43% 29.73 in 10.0 mi South 4.6 mph - N/A   Clear
7:15 PM 65.3 °F - 44.6 °F 47% 29.74 in 10.0 mi SSE 3.5 mph - N/A   Clear
7:35 PM 62.4 °F - 45.5 °F 54% 29.74 in 10.0 mi Calm Calm - N/A   Clear
7:55 PM 61.0 °F - 45.7 °F 57% 29.74 in 10.0 mi Calm Calm - N/A   Clear
8:15 PM 57.4 °F - 45.7 °F 65% 29.75 in 10.0 mi South 3.5 mph - N/A   Clear
8:35 PM 56.5 °F - 45.9 °F 68% 29.75 in 10.0 mi South 3.5 mph - N/A   Clear
8:55 PM 55.9 °F - 46.4 °F 70% 29.76 in 10.0 mi SSE 4.6 mph - N/A   Clear
9:15 PM 56.7 °F - 45.9 °F 67% 29.76 in 10.0 mi SSE 4.6 mph - N/A   Clear
9:35 PM 57.0 °F - 46.0 °F 67% 29.76 in 10.0 mi South 4.6 mph - N/A   Clear
9:55 PM 56.1 °F - 46.0 °F 69% 29.76 in 10.0 mi SSE 4.6 mph - N/A   Clear
10:15 PM 55.6 °F - 46.4 °F 71% 29.76 in 10.0 mi SSE 4.6 mph - N/A   Clear
10:35 PM 55.0 °F - 46.4 °F 73% 29.76 in 10.0 mi SSE 3.5 mph - N/A   Clear
10:55 PM 54.3 °F - 46.6 °F 75% 29.76 in 10.0 mi SSE 3.5 mph - N/A   Clear
11:15 PM 54.3 °F - 46.6 °F 75% 29.76 in 10.0 mi SSE 4.6 mph - N/A   Clear
11:35 PM 55.9 °F - 47.1 °F 72% 29.76 in 10.0 mi SSE 4.6 mph - N/A   Clear
11:55 PM 58.1 °F - 47.8 °F 69% 29.76 in 10.0 mi South 4.6 mph - N/A   Clear